Location: Unspecified
(22.6800°N, 112.2000°E)
Time: 07:20:21
(UTC+08:00)

X-37B - Pass Details

Date: 22 June 2021
Orbit: 383 x 392 km, 45.0° (Epoch: 01 July)

Event Time Altitude Azimuth Distance (km) Brightness Sun altitude
Rises 20:04:27 0° 220° (SW) 2,243 4.6 -10.1°
Reaches altitude 10° 20:06:31 10° 217° (SW) 1,392 3.5 -10.5°
Maximum altitude 20:09:36 59° 136° (SE) 443 0.5 -11.1°
Drops below altitude 10° 20:12:42 10° 56° (NE) 1,394 3.1 -11.7°
Sets 20:14:47 0° 52° (NE) 2,247 4.2 -12.1°
